TimeEST,TemperatureF,Dew PointF,Humidity,Sea Level PressureIn,VisibilityMPH,Wind Direction,Wind SpeedMPH,Gust SpeedMPH,PrecipitationIn,Events,Conditions,WindDirDegrees,DateUTC
12:51 AM,36.0,21.9,57,30.23,10.0,NW,13.8,21.9,N/A,,Partly Cloudy,320,2012-12-06 05:51:00
1:51 AM,36.0,21.0,55,30.25,10.0,NNW,15.0,20.7,N/A,,Partly Cloudy,340,2012-12-06 06:51:00
2:51 AM,35.1,19.9,54,30.27,10.0,NNW,11.5,-,N/A,,Partly Cloudy,340,2012-12-06 07:51:00
3:51 AM,34.0,19.9,56,30.27,10.0,North,10.4,-,N/A,,Clear,350,2012-12-06 08:51:00
4:51 AM,33.1,19.0,56,30.29,10.0,NNW,11.5,-,N/A,,Clear,330,2012-12-06 09:51:00
5:51 AM,33.1,18.0,54,30.32,10.0,NNW,13.8,-,N/A,,Clear,330,2012-12-06 10:51:00
6:51 AM,32.0,18.0,56,30.34,10.0,NNW,13.8,-,N/A,,Partly Cloudy,330,2012-12-06 11:51:00
7:51 AM,32.0,17.1,54,30.36,10.0,North,9.2,-,N/A,,Scattered Clouds,10,2012-12-06 12:51:00
8:51 AM,33.1,18.0,54,30.37,10.0,NNE,8.1,-,N/A,,Scattered Clouds,30,2012-12-06 13:51:00
9:51 AM,33.1,16.0,50,30.36,10.0,North,10.4,-,N/A,,Scattered Clouds,10,2012-12-06 14:51:00
10:51 AM,35.1,16.0,46,30.36,10.0,North,8.1,-,N/A,,Scattered Clouds,350,2012-12-06 15:51:00
11:51 AM,37.0,16.0,42,30.34,10.0,North,8.1,-,N/A,,Mostly Cloudy,10,2012-12-06 16:51:00
12:51 PM,39.0,16.0,39,30.31,10.0,North,5.8,-,N/A,,Mostly Cloudy,360,2012-12-06 17:51:00
1:51 PM,39.9,16.0,38,30.28,10.0,NNE,6.9,-,N/A,,Mostly Cloudy,30,2012-12-06 18:51:00
2:51 PM,41.0,16.0,36,30.29,10.0,Calm,Calm,-,N/A,,Mostly Cloudy,0,2012-12-06 19:51:00
3:51 PM,39.9,16.0,38,30.28,10.0,NNE,4.6,-,N/A,,Mostly Cloudy,30,2012-12-06 20:51:00
4:51 PM,39.0,15.1,38,30.29,10.0,NNE,4.6,-,N/A,,Mostly Cloudy,20,2012-12-06 21:51:00
5:51 PM,39.0,16.0,39,30.30,10.0,East,5.8,-,N/A,,Mostly Cloudy,100,2012-12-06 22:51:00
6:51 PM,39.9,15.1,36,30.31,10.0,East,4.6,-,N/A,,Mostly Cloudy,80,2012-12-06 23:51:00
7:51 PM,37.9,16.0,41,30.30,10.0,SE,5.8,-,N/A,,Mostly Cloudy,140,2012-12-07 00:51:00
8:51 PM,39.9,17.1,40,30.30,10.0,ESE,4.6,-,N/A,,Mostly Cloudy,110,2012-12-07 01:51:00
9:51 PM,37.9,18.0,45,30.30,10.0,SSE,5.8,-,N/A,,Mostly Cloudy,150,2012-12-07 02:51:00
10:51 PM,37.0,19.0,48,30.29,10.0,SSE,4.6,-,N/A,,Scattered Clouds,150,2012-12-07 03:51:00
11:51 PM,37.9,21.0,51,30.29,10.0,South,5.8,-,N/A,,Scattered Clouds,190,2012-12-07 04:51:00